"SCET";"TARGET";"ELECTRON_DENSITY";"ERROR_FLAG";"ELECTRON_DENSITY_ERROR";"FREQ_FCE";"MEASURED_VALUE";"MEASURED_ITEM";"FREQ_PLASMA";"FREQ_UPPER_HYBRID";"FREQ_R_EQUALS_ZERO";"FREQ_L_EQUALS_ZERO";"ORBIT_NUMBER";"SATURN_RADIUS";"SATURN_IAU_LONGITUDE";"SATURN_SLS4_S_LONGITUDE";"SATURN_SLS4_N_LONGITUDE";"SATURN_SLS5_S_LONGITUDE";"SATURN_SLS5_N_LONGITUDE";"SATURN_LOCAL_TIME";"SATURN_KRONOGRAPHIC_LATITUDE";"SATURN_MAGNETIC_LATITUDE";"SATURN_L";"SATURN_L_OFFSET";"SATURN_SOLAR_EQUATORIAL_X";"SATURN_SOLAR_EQUATORIAL_Y";"SATURN_SOLAR_EQUATORIAL_Z";"SATURN_ALTITUDE";"ENCELADUS_ENCOUNTER_NUMBER";"ENCELADUS_RADIUS";"ENCELADUS_COROTATIONAL_X";"ENCELADUS_COROTATIONAL_Y";"ENCELADUS_COROTATIONAL_Z";"ENCELADUS_TRUE_ANOMALY";"ENCELADUS_PERIAPSIS_TIME";"JUPITER_RADIUS";"JUPITER_SYSTEMIII_LONGITUDE";"JUPITER_MAGNETIC_LATITUDE";"JUPITER_MAGNETIC_LOCAL_TIME";"JUPITER_L";"IO_PHASE";"EARTH_RADIUS";"EARTH_MAGNETIC_LATITUDE";"EARTH_LOCAL_TIME";"EARTH_L"
"[UTC]";"[0=Saturn, 1=Enceladus, 2=Jupiter, 3=Earth]";"[cm-3]";"[0=automated, 1=manual]";"[normalized density error]";"[Hz]";"[Hz]";"[0=upper hybrid frequency, 1=plasma frequency cutoff]";"[Hz]";"[Hz]";"[Hz]";"[Hz}";"[0, A, B, C, 3, 4, ... , 292, 293]";"[Rs where 1Rs=60268km]";"[degrees]";"[degrees]";"[degrees]";"[degrees]";"[degrees]";"[hours]";"[degrees]";"[degrees where offset=2293km north]";"[Rs where 1Rs=60268km]";"[Rs where 1Rs=60268km and offset=2293km north]";"[Rs where 1Rs=60268km]";"[Rs where 1Rs=60268km]";"[Rs where 1Rs=60268km]";"[km where ellipsoid a,b=60268km and c=54364km]";"[E0, E1, E2, ... , E21, E22]";"[Renc where 1Renc=252.1km]";"[Renc where 1Renc=252.1km]";"[Renc where 1Renc=252.1km]";"[Renc where 1Renc=252.1km]";"[degrees]";"[UTC]";"[Rj where 1Rj=71492km]";"[degrees]";"[degrees using JRM09 model]";"[hours using JRM09 model]";"[Rj where 1Rj=71492km]";"[degrees]";"[Re where 1Re=6378.1366km]";"[degrees]";"[hours]";"[Re where 1Re=6378.1366km]"
2005-04-15T02:55:51.359Z;0;3.1810e+01;0;     0.253;  9355.641;  51506.078; 0;  50649.266;  51506.078;  55542.641;  46187.000;  6;   3.979; 101.392; 109.244;; 115.448; 236.172;   0.238;   7.401;   6.857;   4.047;   3.971;  -3.939;  -0.245;   0.513;;;;;;;;;;;;;;;;;;
2005-04-15T02:56:55.359Z;0;3.3560e+01;0;     0.234;  9285.920;  52847.359; 0;  52025.141;  52847.359;  56874.867;  47588.945;  6;   3.990; 101.779; 109.623;; 115.832; 236.554;   0.252;   7.394;   6.852;   4.057;   3.981;  -3.948;  -0.261;   0.513;;;;;;;;;;;;;;;;;;
2005-04-15T02:58:15.359Z;0;3.4190e+01;0;     0.217;  9217.880;  53311.160; 0;  52508.195;  53311.160;  57319.023;  48101.145;  6;   4.002; 102.264; 110.098;; 116.317; 237.031;   0.270;   7.386;   6.846;   4.070;   3.994;  -3.959;  -0.280;   0.515;;;;;;;;;;;;;;;;;;
2005-04-15T02:59:19.359Z;0;3.4610e+01;0;     0.232;  9150.399;  53615.645; 0;  52829.039;  53615.645;  57601.984;  48451.586;  6;   4.013; 102.653; 110.479;; 116.707; 237.413;   0.284;   7.380;   6.841;   4.080;   4.004;  -3.968;  -0.295;   0.515;;;;;;;;;;;;;;;;;;
2005-04-15T03:00:23.359Z;0;3.4900e+01;0;     0.210;  9082.920;  53819.105; 0;  53047.117;  53819.105;  57782.625;  48699.703;  6;   4.023; 103.043; 110.862;; 117.095; 237.799;   0.298;   7.373;   6.836;   4.090;   4.014;  -3.977;  -0.311;   0.516;;;;;;;;;;;;;;;;;;
2005-04-15T03:01:27.359Z;0;3.4230e+01;0;     0.196;  9014.880;  53308.719; 0;  52540.949;  53308.719;  57241.379;  48226.500;  6;   4.033; 103.435; 111.245;; 117.476; 238.193;   0.312;   7.367;   6.830;   4.100;   4.024;  -3.986;  -0.326;   0.517;;;;;;;;;;;;;;;;;;
2005-04-15T03:02:31.355Z;0;3.4230e+01;0;     0.196;  8949.920;  53297.156; 0;  52540.324;  53297.156;  57205.512;  48255.590;  6;   4.043; 103.827; 111.630;; 117.857; 238.589;   0.325;   7.360;   6.825;   4.111;   4.034;  -3.995;  -0.341;   0.518;;;;;;;;;;;;;;;;;;
2005-04-15T03:03:35.355Z;0;3.4590e+01;0;     0.190;  8818.320;  53545.875; 0;  52814.750;  53545.875;  57407.637;  48589.316;  6;   4.054; 104.220; 112.015;; 118.239; 238.987;   0.339;   7.354;   6.820;   4.121;   4.045;  -4.004;  -0.357;   0.519;;;;;;;;;;;;;;;;;;
2005-04-15T03:04:39.355Z;0;3.4350e+01;0;     0.190;  8753.641;  53353.672; 0;  52630.676;  53353.672;  57189.172;  48435.531;  6;   4.064; 104.615; 112.402;; 118.620; 239.388;   0.353;   7.347;   6.814;   4.131;   4.055;  -4.013;  -0.372;   0.520;;;;;;;;;;;;;;;;;;
2005-04-15T03:05:43.355Z;0;3.4630e+01;0;     0.189;  8690.920;  53555.633; 0;  52845.754;  53555.633;  57369.574;  48678.656;  6;   4.074; 105.011; 112.790;; 119.001; 239.791;   0.367;   7.340;   6.809;   4.142;   4.065;  -4.022;  -0.387;   0.520;;;;;;;;;;;;;;;;;;
2005-04-15T03:06:47.355Z;0;3.5180e+01;0;     0.197;  8628.200;  53959.930; 0;  53265.637;  53959.930;  57754.156;  49125.957;  6;   4.084; 105.407; 113.179;; 119.382; 240.196;   0.380;   7.333;   6.803;   4.152;   4.075;  -4.031;  -0.403;   0.521;;;;;;;;;;;;;;;;;;
2005-04-15T03:08:07.355Z;0;3.4910e+01;0;     0.192;  8566.040;  53748.301; 0;  53061.312;  53748.301;  57516.910;  48950.871;  6;   4.097; 105.904; 113.666;; 119.859; 240.706;   0.397;   7.325;   6.796;   4.165;   4.088;  -4.042;  -0.422;   0.522;;;;;;;;;;;;;;;;;;
2005-04-15T03:09:11.355Z;0;3.6030e+01;0;     0.197;  8502.761;  54570.934; 0;  53904.453;  54570.934;  58323.223;  49820.461;  6;   4.107; 106.303; 114.057;; 120.240; 241.116;   0.411;   7.318;   6.791;   4.175;   4.099;  -4.050;  -0.437;   0.523;;;;;;;;;;;;;;;;;;
2005-04-15T03:10:15.355Z;0;3.6110e+01;0;     0.204;  8438.920;  54620.234; 0;  53964.383;  54620.234;  58348.551;  49909.629;  6;   4.118; 106.703; 114.449;; 120.623; 241.527;   0.424;   7.311;   6.785;   4.186;   4.109;  -4.059;  -0.453;   0.524;;;;;;;;;;;;;;;;;;
2005-04-15T03:11:19.355Z;0;3.6420e+01;0;     0.207;  8379.840;  54837.270; 0;  54193.215;  54837.270;  58544.863;  50165.023;  6;   4.128; 107.104; 114.842;; 121.016; 241.935;   0.437;   7.304;   6.779;   4.196;   4.119;  -4.068;  -0.468;   0.525;;;;;;;;;;;;;;;;;;
2005-04-15T03:12:23.352Z;0;3.6110e+01;0;     0.193;  8317.680;  54601.883; 0;  53964.637;  54601.883;  58283.488;  49965.809;  6;   4.138; 107.506; 115.236;; 121.411; 242.344;   0.451;   7.296;   6.773;   4.206;   4.130;  -4.076;  -0.483;   0.526;;;;;;;;;;;;;;;;;;
2005-04-15T03:13:27.352Z;0;3.5210e+01;0;     0.181;  8257.200;  53920.523; 0;  53284.535;  53920.523;  57572.840;  49315.641;  6;   4.149; 107.909; 115.632;; 121.808; 242.754;   0.464;   7.289;   6.768;   4.217;   4.140;  -4.085;  -0.499;   0.526;;;;;;;;;;;;;;;;;;
2005-04-15T03:14:31.352Z;0;3.5950e+01;0;     0.194;  8198.120;  54465.191; 0;  53844.664;  54465.191;  58099.523;  49901.406;  6;   4.159; 108.313; 116.028;; 122.207; 243.165;   0.477;   7.282;   6.762;   4.227;   4.150;  -4.093;  -0.514;   0.527;;;;;;;;;;;;;;;;;;
2005-04-15T03:15:35.352Z;0;3.6450e+01;0;     0.208;  8082.760;  54816.156; 0;  54216.973;  54816.156;  58408.766;  50326.008;  6;   4.169; 108.718; 116.425;; 122.609; 243.577;   0.490;   7.275;   6.756;   4.237;   4.160;  -4.102;  -0.529;   0.528;;;;;;;;;;;;;;;;;;
2005-04-15T03:16:39.352Z;0;3.6500e+01;0;     0.198;  8023.680;  54846.492; 0;  54256.414;  54846.492;  58416.371;  50392.691;  6;   4.180; 109.124; 116.823;; 123.013; 243.990;   0.503;   7.267;   6.750;   4.248;   4.171;  -4.110;  -0.544;   0.529;;;;;;;;;;;;;;;;;;
2005-04-15T03:17:59.352Z;0;4.0670e+01;0;     0.234;  7962.640;  57821.484; 0;  57270.590;  57821.484;  61390.129;  53427.488;  6;   4.193; 109.632; 117.322;; 123.520; 244.508;   0.519;   7.258;   6.742;   4.261;   4.184;  -4.121;  -0.563;   0.530;;;;;;;;;;;;;;;;;;
2005-04-15T03:19:03.352Z;0;4.0400e+01;0;     0.217;  7908.880;  57623.949; 0;  57078.621;  57623.949;  61169.883;  53261.000;  6;   4.203; 110.041; 117.722;; 123.929; 244.923;   0.532;   7.251;   6.736;   4.271;   4.194;  -4.129;  -0.579;   0.530;;;;;;;;;;;;;;;;;;
2005-04-15T03:20:07.352Z;0;3.9450e+01;0;     0.233;  7850.080;  56943.070; 0;  56399.375;  56943.070;  60460.828;  52610.750;  6;   4.213; 110.450; 118.123;; 124.339; 245.340;   0.545;   7.243;   6.730;   4.281;   4.204;  -4.137;  -0.594;   0.531;;;;;;;;;;;;;;;;;;
2005-04-15T03:21:11.352Z;0;3.9080e+01;0;     0.236;  7794.920;  56677.367; 0;  56138.785;  56677.367;  60171.375;  52376.453;  6;   4.224; 110.859; 118.525;; 124.745; 245.757;   0.557;   7.236;   6.723;   4.292;   4.215;  -4.146;  -0.609;   0.532;;;;;;;;;;;;;;;;;;
2005-04-15T03:22:15.352Z;0;4.2010e+01;0;     0.187;  7739.760;  58713.250; 0;  58200.875;  58713.250;  62199.270;  54459.512;  6;   4.234; 111.270; 118.928;; 125.152; 246.175;   0.570;   7.228;   6.717;   4.302;   4.225;  -4.154;  -0.625;   0.533;;;;;;;;;;;;;;;;;;
2005-04-15T03:23:19.348Z;0;4.1180e+01;0;     0.205;  7681.800;  58135.504; 0;  57625.746;  58135.504;  61594.508;  53912.707;  6;   4.245; 111.682; 119.332;; 125.561; 246.594;   0.582;   7.221;   6.711;   4.313;   4.236;  -4.162;  -0.640;   0.533;;;;;;;;;;;;;;;;;;
2005-04-15T03:24:23.348Z;0;4.1900e+01;0;     0.189;  7626.640;  58624.902; 0;  58126.703;  58624.902;  62064.973;  54438.332;  6;   4.255; 112.095; 119.737;; 125.970; 247.014;   0.595;   7.213;   6.704;   4.323;   4.246;  -4.170;  -0.655;   0.534;;;;;;;;;;;;;;;;;;
2005-04-15T03:25:27.348Z;0;3.9520e+01;0;     0.217;  7575.120;  56957.590; 0;  56451.613;  56957.590;  60366.090;  52790.973;  6;   4.265; 112.509; 120.143;; 126.380; 247.435;   0.607;   7.205;   6.698;   4.333;   4.256;  -4.178;  -0.670;   0.535;;;;;;;;;;;;;;;;;;
2005-04-15T03:26:31.348Z;0;3.9650e+01;0;     0.220;  7522.200;  57041.551; 0;  56543.391;  57041.551;  60429.441;  52907.242;  6;   4.276; 112.923; 120.550;; 126.791; 247.856;   0.620;   7.198;   6.691;   4.344;   4.267;  -4.186;  -0.686;   0.536;;;;;;;;;;;;;;;;;;
2005-04-15T03:27:51.348Z;0;4.0020e+01;0;     0.209;  7417.760;  57293.777; 0;  56811.562;  57293.777;  60641.379;  53223.621;  6;   4.289; 113.443; 121.060;; 127.306; 248.385;   0.635;   7.188;   6.683;   4.357;   4.280;  -4.196;  -0.705;   0.537;;;;;;;;;;;;;;;;;;
2005-04-15T03:28:55.348Z;0;4.0000e+01;0;     0.217;  7364.840;  57269.672; 0;  56794.141;  57269.672;  60595.816;  53230.977;  6;   4.299; 113.859; 121.468;; 127.720; 248.809;   0.648;   7.180;   6.677;   4.367;   4.290;  -4.204;  -0.720;   0.537;;;;;;;;;;;;;;;;;;
2005-04-15T03:29:59.348Z;0;3.9800e+01;0;     0.209;  7312.480;  57121.883; 0;  56651.895;  57121.883;  60425.996;  53113.516;  6;   4.310; 114.277; 121.878;; 128.134; 249.234;   0.660;   7.172;   6.670;   4.378;   4.301;  -4.212;  -0.735;   0.538;;;;;;;;;;;;;;;;;;
2005-04-15T03:31:03.348Z;0;4.0570e+01;0;     0.198;  7261.240;  57657.820; 0;  57198.766;  57657.820;  60944.492;  53683.254;  6;   4.320; 114.695; 122.289;; 128.543; 249.654;   0.672;   7.164;   6.663;   4.388;   4.311;  -4.220;  -0.750;   0.539;;;;;;;;;;;;;;;;;;
2005-04-15T03:32:07.348Z;0;4.0850e+01;0;     0.196;  7207.480;  57847.117; 0;  57396.352;  57847.117;  61113.113;  53905.633;  6;   4.330; 115.115; 122.700;; 128.952; 250.073;   0.684;   7.157;   6.657;   4.399;   4.321;  -4.228;  -0.765;   0.539;;;;;;;;;;;;;;;;;;
2005-04-15T03:33:11.344Z;0;3.9420e+01;0;     0.210;  7157.080;  56835.805; 0;  56383.375;  56835.805;  60075.363;  52918.281;  6;   4.341; 115.535; 123.112;; 129.360; 250.492;   0.696;   7.149;   6.650;   4.409;   4.332;  -4.236;  -0.781;   0.540;;;;;;;;;;;;;;;;;;
2005-04-15T03:34:15.344Z;0;4.0270e+01;0;     0.196;  7104.160;  57424.883; 0;  56983.754;  57424.883;  60646.434;  53542.273;  6;   4.351; 115.956; 123.526;; 129.768; 250.911;   0.708;   7.141;   6.643;   4.420;   4.342;  -4.243;  -0.796;   0.541;;;;;;;;;;;;;;;;;;
2005-04-15T03:35:19.344Z;0;4.0440e+01;0;     0.197;  7056.280;  57541.707; 0;  57107.414;  57541.707;  60744.438;  53688.156;  6;   4.362; 116.378; 123.940;; 130.176; 251.330;   0.720;   7.133;   6.636;   4.430;   4.353;  -4.251;  -0.811;   0.542;;;;;;;;;;;;;;;;;;
2005-04-15T03:36:23.344Z;0;3.8900e+01;0;     0.224;  7007.560;  56447.805; 0;  56011.148;  56447.805;  59624.410;  52616.852;  6;   4.372; 116.800; 124.355;; 130.584; 251.748;   0.732;   7.125;   6.629;   4.440;   4.363;  -4.259;  -0.826;   0.542;;;;;;;;;;;;;;;;;;
2005-04-15T03:37:27.344Z;0;4.1680e+01;0;     0.177;  6958.560;  58389.945; 0;  57973.824;  58389.945;  61557.414;  54598.852;  6;   4.383; 117.224; 124.771;; 130.992; 252.166;   0.743;   7.117;   6.623;   4.451;   4.374;  -4.267;  -0.841;   0.543;;;;;;;;;;;;;;;;;;
2005-04-15T03:38:47.344Z;0;4.1270e+01;0;     0.177;  6858.320;  58093.711; 0;  57687.457;  58093.711;  61218.449;  54360.129;  6;   4.396; 117.755; 125.292;; 131.501; 252.689;   0.758;   7.106;   6.614;   4.464;   4.387;  -4.276;  -0.860;   0.544;;;;;;;;;;;;;;;;;;
2005-04-15T03:39:51.344Z;0;4.1480e+01;0;     0.183;  6809.880;  58233.312; 0;  57833.762;  58233.312;  61338.848;  54528.969;  6;   4.406; 118.180; 125.709;; 131.908; 253.106;   0.770;   7.098;   6.607;   4.474;   4.397;  -4.284;  -0.875;   0.544;;;;;;;;;;;;;;;;;;
2005-04-15T03:40:55.344Z;0;4.1570e+01;0;     0.185;  6762.280;  58291.859; 0;  57898.293;  58291.859;  61378.074;  54615.797;  6;   4.417; 118.607; 126.128;; 132.324; 253.533;   0.781;   7.090;   6.600;   4.485;   4.407;  -4.291;  -0.891;   0.545;;;;;;;;;;;;;;;;;;
2005-04-15T03:41:59.344Z;0;4.0870e+01;0;     0.189;  6714.680;  57803.434; 0;  57412.105;  57803.434;  60867.527;  54152.848;  6;   4.427; 119.034; 126.547;; 132.744; 253.964;   0.793;   7.082;   6.593;   4.495;   4.418;  -4.299;  -0.906;   0.546;;;;;;;;;;;;;;;;;;
2005-04-15T03:43:03.344Z;0;4.1380e+01;0;     0.181;  6665.680;  58152.668; 0;  57769.383;  58152.668;  61198.281;  54532.602;  6;   4.437; 119.462; 126.967;; 133.166; 254.396;   0.804;   7.074;   6.586;   4.506;   4.428;  -4.306;  -0.921;   0.546;;;;;;;;;;;;;;;;;;
2005-04-15T03:44:07.340Z;0;4.1670e+01;0;     0.181;  6619.200;  58346.859; 0;  57970.184;  58346.859;  61374.180;  54754.980;  6;   4.448; 119.891; 127.388;; 133.590; 254.831;   0.816;   7.066;   6.579;   4.516;   4.439;  -4.314;  -0.936;   0.547;;;;;;;;;;;;;;;;;;
2005-04-15T03:45:11.340Z;0;4.2220e+01;0;     0.181;  6571.880;  58715.547; 0;  58346.602;  58715.547;  61724.996;  55153.117;  6;   4.458; 120.320; 127.810;; 134.016; 255.267;   0.827;   7.057;   6.572;   4.527;   4.449;  -4.321;  -0.951;   0.548;;;;;;;;;;;;;;;;;;
2005-04-15T03:46:15.340Z;0;4.1570e+01;0;     0.179;  6524.840;  58265.637; 0;  57899.145;  58265.637;  61253.406;  54728.562;  6;   4.469; 120.751; 128.233;; 134.443; 255.706;   0.839;   7.049;   6.565;   4.537;   4.460;  -4.329;  -0.966;   0.548;;;;;;;;;;;;;;;;;;
2005-04-15T03:47:19.340Z;0;4.2040e+01;0;     0.169;  6444.676;  58578.855; 0;  58223.266;  58578.855;  61534.703;  55090.027;  6;   4.479; 121.182; 128.656;; 134.873; 256.146;   0.850;   7.041;   6.557;   4.548;   4.470;  -4.336;  -0.981;   0.549;;;;;;;;;;;;;;;;;;
2005-04-15T03:48:39.340Z;0;4.2050e+01;0;     0.170;  6399.484;  58580.383; 0;  58229.785;  58580.383;  61517.375;  55117.891;  6;   4.492; 121.722; 129.187;; 135.413; 256.700;   0.864;   7.030;   6.548;   4.561;   4.483;  -4.345;  -1.000;   0.550;;;;;;;;;;;;;;;;;;
2005-04-15T03:49:43.340Z;0;4.2180e+01;0;     0.181;  6356.056;  58667.973; 0;  58322.652;  58667.973;  61587.199;  55231.145;  6;   4.503; 122.155; 129.612;; 135.847; 257.145;   0.875;   7.022;   6.541;   4.571;   4.494;  -4.352;  -1.015;   0.550;;;;;;;;;;;;;;;;;;
2005-04-15T03:50:47.340Z;0;4.1620e+01;0;     0.182;  6312.320;  58279.031; 0;  57936.172;  58279.031;  61178.238;  54865.918;  6;   4.513; 122.589; 130.038;; 136.275; 257.587;   0.886;   7.014;   6.534;   4.582;   4.504;  -4.360;  -1.030;   0.551;;;;;;;;;;;;;;;;;;
2005-04-15T03:51:51.340Z;0;4.2180e+01;0;     0.175;  6268.920;  58660.379; 0;  58324.445;  58660.379;  61543.070;  55274.148;  6;   4.524; 123.024; 130.465;; 136.699; 258.029;   0.897;   7.005;   6.527;   4.592;   4.515;  -4.367;  -1.045;   0.552;;;;;;;;;;;;;;;;;;
2005-04-15T03:52:55.340Z;0;4.2300e+01;0;     0.176;  6223.560;  58734.078; 0;  58403.418;  58734.078;  61598.039;  55374.477;  6;   4.534; 123.459; 130.893;; 137.123; 258.471;   0.908;   6.997;   6.519;   4.603;   4.525;  -4.374;  -1.060;   0.552;;;;;;;;;;;;;;;;;;
2005-04-15T03:53:59.336Z;0;4.2220e+01;0;     0.175;  6180.440;  58673.738; 0;  58347.320;  58673.738;  61519.316;  55338.875;  6;   4.545; 123.895; 131.321;; 137.547; 258.915;   0.919;   6.988;   6.512;   4.613;   4.536;  -4.381;  -1.075;   0.553;;;;;;;;;;;;;;;;;;
2005-04-15T03:55:03.336Z;0;4.2040e+01;0;     0.180;  6136.480;  58545.523; 0;  58223.035;  58545.523;  61372.066;  55235.586;  6;   4.555; 124.332; 131.750;; 137.970; 259.359;   0.930;   6.980;   6.505;   4.624;   4.546;  -4.388;  -1.090;   0.554;;;;;;;;;;;;;;;;;;
2005-04-15T03:56:07.336Z;0;4.2790e+01;0;     0.176;  6093.360;  59056.180; 0;  58740.984;  59056.180;  61866.621;  55773.262;  6;   4.566; 124.770; 132.180;; 138.393; 259.804;   0.941;   6.972;   6.497;   4.634;   4.557;  -4.395;  -1.106;   0.554;;;;;;;;;;;;;;;;;;
2005-04-15T03:57:11.336Z;0;4.1730e+01;0;     0.195;  6048.840;  58324.000; 0;  58009.488;  58324.000;  61112.695;  55063.855;  6;   4.576; 125.208; 132.611;; 138.816; 260.249;   0.952;   6.963;   6.490;   4.645;   4.567;  -4.402;  -1.121;   0.555;;;;;;;;;;;;;;;;;;
2005-04-15T03:58:31.336Z;0;4.2320e+01;0;     0.173;  5963.328;  58719.258; 0;  58415.664;  58719.258;  61473.375;  55510.047;  6;   4.590; 125.757; 133.150;; 139.343; 260.808;   0.965;   6.953;   6.481;   4.658;   4.580;  -4.411;  -1.139;   0.556;;;;;;;;;;;;;;;;;;
2005-04-15T03:59:35.336Z;0;4.2350e+01;0;     0.171;  5921.720;  58739.273; 0;  58440.016;  58739.273;  61475.832;  55554.113;  6;   4.600; 126.197; 133.582;; 139.765; 261.255;   0.976;   6.944;   6.473;   4.668;   4.591;  -4.418;  -1.154;   0.556;;;;;;;;;;;;;;;;;;
2005-04-15T04:00:39.336Z;0;4.2550e+01;0;     0.171;  5880.924;  58873.250; 0;  58578.785;  58873.250;  61593.004;  55712.078;  6;   4.611; 126.638; 134.015;; 140.194; 261.703;   0.987;   6.935;   6.466;   4.679;   4.601;  -4.425;  -1.169;   0.557;;;;;;;;;;;;;;;;;;
2005-04-15T04:01:43.336Z;0;4.2680e+01;0;     0.167;  5837.216;  58955.633; 0;  58665.949;  58955.633;  61657.113;  55819.895;  6;   4.621; 127.080; 134.449;; 140.628; 262.152;   0.997;   6.927;   6.458;   4.689;   4.612;  -4.432;  -1.184;   0.557;;;;;;;;;;;;;;;;;;
2005-04-15T04:02:47.336Z;0;4.2690e+01;0;     0.175;  5797.960;  58955.785; 0;  58669.996;  58955.785;  61640.551;  55842.594;  6;   4.632; 127.522; 134.884;; 141.063; 262.601;   1.008;   6.918;   6.451;   4.700;   4.622;  -4.439;  -1.199;   0.558;;;;;;;;;;;;;;;;;;
2005-04-15T04:03:51.336Z;0;4.0890e+01;0;     0.193;  5757.920;  57710.926; 0;  57422.969;  57710.926;  60374.055;  54616.133;  6;   4.642; 127.965; 135.319;; 141.501; 263.052;   1.018;   6.910;   6.443;   4.710;   4.633;  -4.446;  -1.214;   0.558;;;;;;;;;;;;;;;;;;
2005-04-15T04:04:55.332Z;0;4.2670e+01;0;     0.170;  5717.880;  58934.430; 0;  58656.398;  58934.430;  61584.969;  55867.090;  6;   4.653; 128.409; 135.755;; 141.941; 263.503;   1.029;   6.901;   6.436;   4.721;   4.643;  -4.452;  -1.229;   0.559;;;;;;;;;;;;;;;;;;
2005-04-15T04:05:59.332Z;0;4.1080e+01;0;     0.195;  5676.440;  57834.922; 0;  57555.680;  57834.922;  60463.836;  54787.398;  6;   4.663; 128.853; 136.191;; 142.382; 263.954;   1.039;   6.893;   6.428;   4.731;   4.654;  -4.459;  -1.244;   0.560;;;;;;;;;;;;;;;;;;
2005-04-15T04:07:03.332Z;0;4.2810e+01;0;     0.169;  5640.320;  59024.105; 0;  58753.992;  59024.105;  61641.797;  56001.477;  6;   4.674; 129.298; 136.629;; 142.826; 264.407;   1.050;   6.884;   6.421;   4.742;   4.664;  -4.466;  -1.259;   0.560;;;;;;;;;;;;;;;;;;
2005-04-15T04:08:23.332Z;0;4.1300e+01;0;     0.182;  5564.440;  57977.078; 0;  57709.434;  57977.078;  60558.680;  54994.238;  6;   4.687; 129.856; 137.177;; 143.383; 264.973;   1.062;   6.873;   6.411;   4.755;   4.678;  -4.474;  -1.278;   0.561;;;;;;;;;;;;;;;;;;
2005-04-15T04:09:27.332Z;0;4.1290e+01;0;     0.182;  5527.004;  57966.309; 0;  57702.211;  57966.309;  60531.852;  55004.848;  6;   4.697; 130.302; 137.616;; 143.830; 265.427;   1.073;   6.865;   6.404;   4.765;   4.688;  -4.481;  -1.293;   0.561;;;;;;;;;;;;;;;;;;
2005-04-15T04:10:31.332Z;0;4.1780e+01;0;     0.183;  5489.092;  58305.281; 0;  58046.324;  58305.281;  60855.719;  55366.625;  6;   4.708; 130.750; 138.055;; 144.277; 265.879;   1.083;   6.856;   6.396;   4.776;   4.699;  -4.488;  -1.308;   0.562;;;;;;;;;;;;;;;;;;
2005-04-15T04:11:35.332Z;0;4.1470e+01;0;     0.180;  5450.508;  58083.391; 0;  57827.090;  58083.391;  60616.523;  55166.016;  6;   4.718; 131.198; 138.496;; 144.722; 266.328;   1.093;   6.847;   6.388;   4.786;   4.709;  -4.494;  -1.323;   0.563;;;;;;;;;;;;;;;;;;
2005-04-15T04:12:39.328Z;0;4.2190e+01;0;     0.177;  5411.616;  58578.270; 0;  58327.766;  58578.270;  61096.301;  55684.684;  6;   4.729; 131.647; 138.937;; 145.167; 266.777;   1.103;   6.839;   6.381;   4.797;   4.720;  -4.501;  -1.337;   0.563;;;;;;;;;;;;;;;;;;
2005-04-15T04:13:43.328Z;0;4.1950e+01;0;     0.177;  5375.524;  58413.691; 0;  58165.824;  58413.691;  60915.652;  55540.129;  6;   4.739; 132.096; 139.378;; 145.613; 267.225;   1.113;   6.830;   6.373;   4.807;   4.730;  -4.507;  -1.352;   0.564;;;;;;;;;;;;;;;;;;
2005-04-15T04:14:47.328Z;0;3.9550e+01;0;     0.218;  5337.920;  56728.590; 0;  56476.895;  56728.590;  59208.883;  53870.961;  6;   4.750; 132.546; 139.821;; 146.060; 267.672;   1.123;   6.821;   6.365;   4.818;   4.741;  -4.514;  -1.367;   0.564;;;;;;;;;;;;;;;;;;
2005-04-15T04:15:51.328Z;0;4.1280e+01;0;     0.193;  5300.960;  57935.605; 0;  57692.582;  57935.605;  60403.914;  55102.953;  6;   4.761; 132.997; 140.264;; 146.507; 268.119;   1.133;   6.813;   6.358;   4.828;   4.751;  -4.520;  -1.382;   0.565;;;;;;;;;;;;;;;;;;
2005-04-15T04:16:55.328Z;0;4.1740e+01;0;     0.218;  5262.600;  58256.680; 0;  58018.496;  58256.680;  60709.434;  55446.832;  6;   4.771; 133.448; 140.708;; 146.955; 268.566;   1.143;   6.804;   6.350;   4.839;   4.762;  -4.527;  -1.397;   0.565;;;;;;;;;;;;;;;;;;
2005-04-15T04:18:15.328Z;0;3.9790e+01;0;     0.210;  5229.000;  56889.266; 0;  56648.441;  56889.266;  59323.246;  54094.246;  6;   4.784; 134.014; 141.263;; 147.516; 269.124;   1.156;   6.793;   6.340;   4.852;   4.775;  -4.535;  -1.415;   0.566;;;;;;;;;;;;;;;;;;
2005-04-15T04:19:19.328Z;0;3.8910e+01;0;     0.236;  5157.264;  56255.586; 0;  56018.691;  56255.586;  58656.641;  53499.375;  6;   4.795; 134.467; 141.708;; 147.966; 269.569;   1.165;   6.784;   6.333;   4.863;   4.785;  -4.541;  -1.430;   0.566;;;;;;;;;;;;;;;;;;
2005-04-15T04:20:23.328Z;0;4.0060e+01;0;     0.199;  5121.116;  57067.668; 0;  56837.426;  57067.668;  59455.633;  54334.516;  6;   4.805; 134.920; 142.154;; 148.414; 270.018;   1.175;   6.776;   6.325;   4.873;   4.796;  -4.548;  -1.445;   0.567;;;;;;;;;;;;;;;;;;
2005-04-15T04:21:27.328Z;0;4.0770e+01;0;     0.193;  5085.528;  57564.910; 0;  57339.832;  57564.910;  59938.949;  54853.418;  6;   4.816; 135.375; 142.601;; 148.859; 270.475;   1.185;   6.767;   6.317;   4.884;   4.807;  -4.554;  -1.460;   0.567;;;;;;;;;;;;;;;;;;
2005-04-15T04:22:31.324Z;0;3.7380e+01;0;     0.207;  5046.076;  55135.586; 0;  54904.188;  55135.586;  57485.168;  52439.090;  6;   4.826; 135.830; 143.048;; 149.303; 270.934;   1.195;   6.758;   6.309;   4.894;   4.817;  -4.560;  -1.475;   0.568;;;;;;;;;;;;;;;;;;
2005-04-15T04:23:35.324Z;0;3.7150e+01;0;     0.221;  5007.688;  54962.094; 0;  54733.488;  54962.094;  57294.574;  52286.887;  6;   4.837; 136.285; 143.496;; 149.746; 271.395;   1.204;   6.750;   6.302;   4.905;   4.828;  -4.566;  -1.490;   0.568;;;;;;;;;;;;;;;;;;
2005-04-15T04:24:39.324Z;0;4.0150e+01;0;     0.237;  4978.904;  57117.652; 0;  56900.234;  57117.652;  59444.117;  54465.215;  6;   4.847; 136.741; 143.944;; 150.189; 271.858;   1.214;   6.741;   6.294;   4.915;   4.838;  -4.573;  -1.504;   0.569;;;;;;;;;;;;;;;;;;
2005-04-15T04:25:43.324Z;0;3.6770e+01;0;     0.179;  4947.600;  54677.305; 0;  54452.996;  54677.305;  56982.961;  52035.359;  6;   4.858; 137.198; 144.393;; 150.632; 272.322;   1.224;   6.732;   6.286;   4.926;   4.849;  -4.579;  -1.519;   0.569;;;;;;;;;;;;;;;;;;